Home   Weather   Quispamsis   Past weeks

Flag for Canada Past Weather in Quispamsis, New Brunswick, Canada — Yesterday and Last 2 Weeks

Now
34 °F

Low clouds.


Feels Like: 26 °F
Forecast: 25 / 36 °F
Wind: 9 mph from Southwest

Location: Saint John

Current Time: Jan 21, 2017 at 3:47:24 pm

Latest Report: Jan 21, 2017 at 3:00 pm


Visibility: 8 mi

Pressure: 29.69 "Hg

Humidity: 100%

Dew Point: 34 °F

Location of QuispamsisLocation

Past Weather in Quispamsis — Graph

°F

Quispamsis Temperature Yesterday

Maximum temperature yesterday: 30 °F (at 10:00 am)
Minimum temperature yesterday: 27 °F (at 6:00 pm)
Average temperature yesterday: 28 °F

High & Low Weather Summary for the Past Weeks

 TemperatureHumidityPressure
High46 °F (Jan 11, 2:33 pm)100% (Jan 10, 5:14 am)30.72 "Hg (Jan 10, 5:14 am)
Low-13 °F (Jan 10, 1:42 am)29% (Jan 13, 2:00 pm)29.69 "Hg (Jan 21, 2:38 pm)
Average22 °F78%30.19 "Hg
* Reported Jan 6 2:03 pm — Jan 21 2:38 pm, Quispamsis, Weather by CustomWeather, © 2017

Note: Actual official high and low records may vary slightly from our data, if they occured in-between our weather recording intervals... More about our weather records

Advertising

Quispamsis Weather History for the Previous 24 Hours

Scroll right to see more
 ConditionsComfort  
Time TempWeatherWind HumidityBarometerVisibility
2:38 pm
Sat, Jan 21
34 °FMore clouds than sun.5 mph100%29.69 "Hg8 mi
2:00 pm36 °FDrizzle. Fog.9 mph100%29.70 "Hg6 mi
1:25 pm36 °FDrizzle. Fog.6 mph100%29.71 "Hg5 mi
1:00 pm36 °FLight snow. Fog.5 mph100%29.72 "Hg4 mi
12:16 pm34 °FLight snow. Fog.7 mph100%29.74 "Hg3 mi
12:00 pm32 °FLight snow. Ice fog.5 mph100%29.75 "Hg2 mi
11:37 am32 °FLight snow. Ice fog.5 mph100%29.77 "Hg2 mi
11:00 am30 °FLight snow. More clouds than sun.3 mph100%29.80 "Hg5 mi
10:10 am30 °FLight snow. Overcast.No wind93%29.82 "Hg10 mi
10:00 am30 °FOvercast.No wind93%29.83 "Hg12 mi
9:00 am28 °FOvercast.2 mph93%29.84 "Hg12 mi
8:00 am27 °FOvercast.3 mph100%29.84 "Hg15 mi
7:00 am27 °FOvercast.No wind100%29.87 "Hg12 mi
6:00 am25 °FOvercast.2 mph100%29.88 "Hg10 mi
5:00 am27 °FOvercast.No wind93%29.89 "Hg10 mi
4:00 am25 °FOvercast.3 mph100%29.89 "Hg10 mi
3:00 am25 °FOvercast.2 mph100%29.92 "Hg10 mi
2:00 am27 °FOvercast.3 mph86%29.92 "Hg15 mi
1:00 am27 °FOvercast.2 mph86%29.93 "Hg15 mi
12:00 am27 °FOvercast.2 mph86%29.94 "Hg15 mi
11:00 pm
Fri, Jan 20
27 °FOvercast.2 mph86%29.97 "Hg8 mi
10:00 pm27 °FOvercast.No wind86%29.96 "Hg8 mi
9:00 pm27 °FOvercast.3 mph86%29.97 "Hg10 mi
8:00 pm27 °FOvercast.2 mph93%29.97 "Hg10 mi
7:00 pm27 °FOvercast.3 mph93%29.96 "Hg15 mi
6:00 pm27 °FOvercast.7 mph93%29.96 "Hg15 mi
5:00 pm28 °FOvercast.7 mph86%29.97 "Hg15 mi
4:00 pm28 °FOvercast.8 mph80%29.97 "Hg15 mi
3:00 pm28 °FOvercast.7 mph80%29.97 "Hg15 mi
Weather by CustomWeather, © 2017

See weather overviewHow to use our weather pages